Location: Kaarina
(60.4167°N, 22.4167°E)
Time: 01:54:19
(UTC+03:00)

USA 32 - Pass Details

Date: 24 August 2019
Orbit: 777 x 783 km, 85.0° (Epoch: 18 October)

Event Time Altitude Azimuth Distance (km) Brightness Sun altitude
Rises 22:38:48 0° 350° (N) 3,281 8.3 -10.7°
Reaches altitude 10° 22:41:10 10° 349° (N) 2,347 7.5 -10.9°
Maximum altitude 22:46:26 80° 264° (W) 799 4.1 -11.4°
Drops below altitude 10° 22:51:40 10° 178° (S) 2,328 6.0 -11.8°
Enters shadow 22:51:56 - 178° (S) 2,432 6.1 -11.8°
